Location: Finnegan
(51.1333°N, 112.0833°W)
Time: 03:46:23
(UTC+00:00)

ISS - Pass Details

Date: 04 December 2022
Orbit: 412 x 424 km, 51.6° (Epoch: 03 February)

Event Time Altitude Azimuth Distance (km) Brightness Sun altitude
Rises 00:20:19 0° 283° (WNW) 2,349 1.0 -8.6°
Reaches altitude 10° 00:22:25 10° 281° (W) 1,486 -0.1 -8.9°
Maximum altitude 00:25:43 65° 199° (SSW) 460 -3.4 -9.3°
Drops below altitude 10° 00:29:02 10° 117° (ESE) 1,492 -1.3 -9.8°
Enters shadow 00:29:57 - 115° (ESE) 1,869 -0.9 -9.9°
